Location: Staunton
(38.1490°N, 79.0720°W)
Time: 09:17:06
(UTC-04:00)

ISS - Pass Details

Date: 13 October 2017
Orbit: 401 x 408 km, 51.6° (Epoch: 18 October)

Event Time Altitude Azimuth Distance (km) Brightness Sun altitude
Rises 20:18:13 0° 308° (NW) 2,323 1.0 -19.9°
Reaches altitude 10° 20:20:18 10° 306° (NW) 1,462 -0.2 -20.3°
Enters shadow 20:23:22 71° 262° (W) 430 -3.7 -20.9°
